Weather reports worldwide

Advertisment
L9F, Netherlands (6207): temperature & dewpoint: 09.08.2020 21:00:00 - 15.08.2020 21:00:00 (CEST)L9F, Netherlands (6207): wind speed & gusts: 09.08.2020 21:00:00 - 15.08.2020 21:00:00 (CEST)L9F, Netherlands (6207): wind direction: 09.08.2020 21:00:00 - 15.08.2020 21:00:00 (CEST)L9F, Netherlands (6207): reduced air pressure: 09.08.2020 21:00:00 - 15.08.2020 21:00:00 (CEST)L9F, Netherlands (6207): visibility: 09.08.2020 21:00:00 - 15.08.2020 21:00:00 (CEST)
Date & Time tt [°C] td [°C] ff [km/h] ff [kn] fx [km/h] fx [kn] dd ppp [hPa] vv [km]
15.08.2020 21:00:00 19,6 18,4 29 16 29 16 ENE 1015,6 10
15.08.2020 20:00:00 19,5 18,3 31 17 29 16 ENE 1015,6 10
15.08.2020 19:00:00 19,6 18,5 34 18 32 18 ENE 1015,6 10
15.08.2020 18:00:00 19,5 18,5 29 16 32 18 NE 1015,7 10
15.08.2020 17:00:00 19,6 18,5 29 16 32 18 ENE 1015,8 10
15.08.2020 16:00:00 19,8 18,7 29 16 29 16 ENE 1016,1 10
15.08.2020 15:00:00 19,7 18,6 29 16 29 16 ENE 1016,4 10
15.08.2020 14:00:00 19,8 18,2 34 18 32 18 ENE 1016,6 10
15.08.2020 13:00:00 19,7 18,6 34 18 32 18 ENE 1016,4 10
15.08.2020 12:00:00 19,5 18,5 31 17 32 18 ENE 1016,4 10
15.08.2020 11:00:00 20,5 19,1 34 18 40 21 ENE 1016,3 10
15.08.2020 10:00:00 19,5 18,5 39 21 40 21 ENE 1015,9 10
15.08.2020 09:00:00 19,7 18,8 32 18 40 21 ENE 1015,8 13
15.08.2020 08:00:00 19,7 18,8 37 20 36 19 NE 1015,2 10
15.08.2020 07:00:00 19,9 18,7 34 18 32 18 NE 1014,9 10
15.08.2020 06:00:00 20,1 18,6 26 14 29 16 NE 1014,8 10
15.08.2020 05:00:00 20,1 18,3 26 14 29 16 NE 1014,7 10
15.08.2020 04:00:00 20,1 18,2 31 17 29 16 NE 1014,9 10
15.08.2020 03:00:00 20,1 18,4 31 17 32 18 NE 1015,2 10
15.08.2020 02:00:00 20,3 17,9 31 17 32 18 NE 1015,2 10
15.08.2020 01:00:00 20,4 17,4 29 16 29 16 ENE 1015,4 10
15.08.2020 00:00:00 20,4 17,2 29 16 29 16 NE 1015,3 10
14.08.2020 23:00:00 20,2 18,1 26 14 29 16 ENE 1014,9 10
14.08.2020 22:00:00 20,1 18,4 28 15 29 16 NE 1014,7 10
14.08.2020 21:00:00 20,0 18,7 28 15 25 14 ENE 1014,5 10
14.08.2020 20:00:00 20,2 18,6 26 14 25 14 NE 1014,2 10
14.08.2020 19:00:00 20,0 18,2 24 13 25 14 NE 1013,8 10
14.08.2020 18:00:00 20,1 18,6 21 11 22 12 ENE 1013,8 10
14.08.2020 17:00:00 20,2 18,8 18 10 18 10 NE 1013,7 10
14.08.2020 16:00:00 22,9 19,8 24 13 25 14 ENE 1013,7 10
14.08.2020 15:00:00 22,3 19,8 28 15 25 14 ENE 1013,6 10
14.08.2020 14:00:00 20,7 19,3 29 16 29 16 ENE 1013,7 10
14.08.2020 13:00:00 20,1 19,2 16 9 18 10 ENE 1013,6 10
14.08.2020 12:00:00 20,2 19,0 5 3 18 10 ENE 1013,8 10
14.08.2020 11:00:00 23,9 20,2 22 12 29 16 E 1014,0 10
14.08.2020 10:00:00 21,7 19,5 28 15 29 16 ENE 1013,5 10
14.08.2020 09:00:00 21,1 19,2 26 14 29 16 E 1013,1 10
14.08.2020 08:00:00 21,8 19,2 29 16 32 18 E 1012,7 10
14.08.2020 07:00:00 20,5 19,1 18 10 25 14 E 1012,7 10
14.08.2020 06:00:00 21,6 19,2 34 18 32 18 E 1012,5 10
14.08.2020 05:00:00 21,9 19,1 37 20 36 19 E 1012,2 10
14.08.2020 04:00:00 22,3 19,0 41 22 40 21 E 1012,2 10
14.08.2020 03:00:00 22,1 18,7 48 26 47 25 E 1012,2 10
14.08.2020 02:00:00 22,0 17,8 48 26 50 27 E 1012,7 10
14.08.2020 01:00:00 22,4 17,8 52 28 50 27 ENE 1012,7 10
14.08.2020 00:00:00 22,2 17,9 52 28 54 29 ENE 1013,1 10
13.08.2020 23:00:00 23,3 18,0 57 31 54 29 E 1012,8 10
13.08.2020 22:00:00 23,3 18,4 54 29 50 27 E 1012,6 10
13.08.2020 21:00:00 23,5 18,6 52 28 50 27 E 1012,4 10
13.08.2020 20:00:00 23,8 18,2 50 27 47 25 E 1012,4 10
13.08.2020 19:00:00 23,9 18,3 48 26 47 25 E 1012,3 10
13.08.2020 18:00:00 23,6 18,6 52 28 47 25 E 1012,4 10
13.08.2020 17:00:00 22,5 18,2 39 21 40 21 ENE 1013,0 10
13.08.2020 16:00:00 20,8 18,9 34 18 32 18 ENE 1013,3 10
13.08.2020 15:00:00 22,5 19,7 34 18 32 18 E 1013,5 10
13.08.2020 14:00:00 22,7 19,3 39 21 36 19 E 1013,5 10
13.08.2020 13:00:00 22,4 18,7 34 18 32 18 E 1013,3 10
13.08.2020 12:00:00 22,7 18,9 24 13 25 14 E 1013,6 10
13.08.2020 11:00:00 21,5 18,5 21 11 22 12 ESE 1013,6 10
13.08.2020 10:00:00 21,1 18,4 24 13 29 16 ESE 1013,7 10
13.08.2020 09:00:00 24,0 19,7 24 13 25 14 ESE 1013,6 10
13.08.2020 08:00:00 21,3 18,3 28 15 29 16 ESE 1013,2 10
13.08.2020 07:00:00 21,6 18,5 26 14 25 14 ESE 1013,1 10
13.08.2020 06:00:00 21,8 18,4 26 14 29 16 SE 1013,1 10
13.08.2020 05:00:00 21,6 19,1 31 17 32 18 SE 1013,2 10
13.08.2020 04:00:00 21,7 19,1 29 16 29 16 ESE 1013,1 10
13.08.2020 03:00:00 22,1 19,0 35 19 32 18 SE 1013,4 10
13.08.2020 02:00:00 22,2 19,2 37 20 36 19 ESE 1013,6 10
13.08.2020 01:00:00 22,2 19,4 41 22 40 21 ESE 1014,1 10
13.08.2020 00:00:00 22,6 19,0 44 24 47 25 E 1014,2 10
12.08.2020 23:00:00 22,8 18,7 50 27 54 29 E 1014,4 10
12.08.2020 22:00:00 23,2 18,6 57 31 54 29 E 1014,3 10
12.08.2020 21:00:00 23,7 18,9 54 29 50 27 E 1014,0 10
12.08.2020 20:00:00 23,6 19,2 54 29 50 27 E 1014,1 10
12.08.2020 19:00:00 24,0 19,7 46 25 43 23 E 1014,4 10
12.08.2020 18:00:00 22,4 19,6 39 21 36 19 E 1014,9 10
12.08.2020 17:00:00 23,4 19,8 39 21 40 21 E 1015,3 10
12.08.2020 16:00:00 23,9 19,8 42 23 40 21 E 1015,7 10
12.08.2020 15:00:00 23,4 19,4 35 19 36 19 E 1016,2 10
12.08.2020 14:00:00 22,3 19,0 34 18 36 19 E 1016,3 10
12.08.2020 13:00:00 22,3 18,8 28 15 29 16 E 1016,1 10
12.08.2020 12:00:00 21,6 18,4 22 12 22 12 ESE 1016,5 10
12.08.2020 11:00:00 21,6 18,0 21 11 22 12 SE 1016,8 10
12.08.2020 10:00:00 21,7 17,6 21 11 22 12 SE 1016,2 10
12.08.2020 09:00:00 21,9 17,6 26 14 29 16 SE 1016,4 10
12.08.2020 08:00:00 21,6 17,9 29 16 29 16 SE 1016,0 10
12.08.2020 07:00:00 22,0 17,5 25 14 29 16 SE 1015,9 24
12.08.2020 06:00:00 21,9 17,7 31 17 32 18 SE 1016,3 10
12.08.2020 05:00:00 22,0 18,2 39 21 36 19 SE 1015,8 10
12.08.2020 04:00:00 22,1 18,4 42 23 40 21 SE 1016,1 10
12.08.2020 03:00:00 22,1 18,6 46 25 43 23 SE 1016,2 10
12.08.2020 02:00:00 22,5 18,5 46 25 43 23 ESE 1016,2 10
12.08.2020 01:00:00 22,2 19,3 40 21 43 23 ESE 1016,3 17
12.08.2020 00:00:00 22,1 19,2 46 25 58 31 ESE 1016,4 10
11.08.2020 23:00:00 22,3 18,7 63 34 61 33 E 1016,4 10
11.08.2020 22:00:00 22,9 18,5 67 36 61 33 E 1016,1 10
11.08.2020 21:00:00 23,2 18,4 67 36 61 33 E 1015,7 10
11.08.2020 20:00:00 23,1 18,4 67 36 61 33 E 1015,7 10
11.08.2020 19:00:00 23,3 18,5 68 37 61 33 E 1015,6 10
11.08.2020 18:00:00 23,3 18,9 67 36 61 33 E 1016,0 10
11.08.2020 17:00:00 22,8 19,4 63 34 58 31 E 1016,5 10
11.08.2020 16:00:00 22,5 19,6 59 32 54 29 E 1016,8 10
11.08.2020 15:00:00 22,0 19,4 54 29 50 27 E 1017,0 10
11.08.2020 14:00:00 22,1 19,2 52 28 50 27 E 1017,6 10
11.08.2020 13:00:00 21,1 19,1 50 27 47 25 E 1017,6 10
11.08.2020 12:00:00 22,0 19,4 50 27 47 25 E 1017,9 10
11.08.2020 11:00:00 22,2 19,2 48 26 43 23 E 1018,1 10
11.08.2020 10:00:00 21,7 19,0 44 24 40 21 E 1018,2 10
11.08.2020 09:00:00 21,3 19,0 34 18 43 23 E 1018,1 10
11.08.2020 08:00:00 21,3 19,1 34 18 40 21 E 1017,9 10
11.08.2020 07:00:00 21,4 19,3 34 18 36 19 ESE 1017,7 10
11.08.2020 06:00:00 21,3 19,3 35 19 32 18 ESE 1017,6 10
11.08.2020 05:00:00 21,4 19,3 39 21 40 21 E 1017,5 9
11.08.2020 04:00:00 22,1 19,3 35 19 36 19 ESE 1017,5 10
11.08.2020 03:00:00 22,3 19,1 29 16 32 18 ESE 1017,7 14
11.08.2020 02:00:00 22,2 19,0 39 21 47 25 ESE 1017,6 10
11.08.2020 01:00:00 22,4 18,8 39 21 50 27 E 1017,6 10
11.08.2020 00:00:00 22,4 19,1 50 27 47 25 E 1017,8 10
10.08.2020 23:00:00 23,2 19,3 48 26 47 25 E 1017,7 10
10.08.2020 22:00:00 21,2 19,1 48 26 47 25 E 1017,3 10
10.08.2020 21:00:00 21,0 19,1 48 26 50 27 E 1017,0 10
10.08.2020 20:00:00 21,6 19,0 54 29 50 27 E 1016,6 10
10.08.2020 19:00:00 21,5 18,9 50 27 47 25 E 1016,7 10
10.08.2020 18:00:00 21,2 18,6 50 27 50 27 E 1016,8 10
10.08.2020 17:00:00 21,2 18,7 50 27 47 25 E 1017,2 10
10.08.2020 16:00:00 20,9 18,8 44 24 43 23 ENE 1017,3 10
10.08.2020 15:00:00 21,3 19,3 42 23 40 21 E 1017,7 10
10.08.2020 14:00:00 20,9 19,2 39 21 36 19 E 1017,8 10
10.08.2020 13:00:00 21,6 19,4 34 18 36 19 E 1017,9 10
10.08.2020 12:00:00 21,2 19,3 37 20 36 19 E 1017,7 10
10.08.2020 11:00:00 20,4 18,5 35 19 36 19 E 1017,8 10
10.08.2020 10:00:00 20,6 18,4 37 20 36 19 E 1017,9 10
10.08.2020 09:00:00 20,1 18,1 37 20 36 19 E 1017,8 10
10.08.2020 08:00:00 21,0 18,4 39 21 36 19 E 1017,9 10
10.08.2020 07:00:00 21,3 18,5 41 22 43 23 E 1017,9 10
10.08.2020 06:00:00 20,5 18,4 42 23 40 21 E 1017,8 10
10.08.2020 05:00:00 19,5 17,7 36 19 43 23 ENE 1017,8 17
10.08.2020 04:00:00 19,3 17,2 41 22 40 21 ENE 1018,1 10
10.08.2020 03:00:00 19,4 16,5 42 23 40 21 ENE 1018,3 10
10.08.2020 02:00:00 19,4 16,8 44 24 40 21 ENE 1018,3 10
10.08.2020 01:00:00 19,5 16,4 44 24 43 23 ENE 1018,8 10
10.08.2020 00:00:00 19,3 17,1 39 21 40 21 NE 1019,1 10
09.08.2020 23:00:00 19,4 17,2 41 22 43 23 ENE 1019,4 10
09.08.2020 22:00:00 19,3 17,2 42 23 40 21 NE 1019,2 10
09.08.2020 21:00:00 19,2 17,4 41 22 40 21 NE 1019,2 10

tt = temperature
td = dewpoint
ff = wind speed
fx = gusts
dd = wind direction
ppp = reduced air pressure
vv = visibility

Next stations